User: anonymous   Login
Location: Newark
(5.5500°N, 0.2500°W)
Time: 04:34:42
(UTC+00:00)
Language:

LightSail 2 - Orbit

View from above orbital plane
View from above orbital plane
View from above satellite
View from above satellite

Ground track
Ground track

The orbit data is extracted from the following two-line orbital elements,

1 44420U 19036AC  19291.17392950  .00004818  00000-0  10878-2 0  9998
2 44420  24.0066 202.1544 0010434 350.1489   9.8805 14.53334405 14854
Epoch (UTC): 18 October 2019 04:10:27
Eccentricity: 0.0010434
inclination: 24.0066°
perigee height: 707 km
apogee height: 722 km
right ascension of ascending node: 202.1544°
argument of perigee: 350.1489°
revolutions per day: 14.53334405
mean anomaly at epoch: 9.8805°
orbit number at epoch: 1485

The dashed part of the orbit path shows where the satellite is in the earth's shadow,  

DLR